Date,TemperatureHighF,TemperatureAvgF,TemperatureLowF,DewpointHighF,DewpointAvgF,DewpointLowF,HumidityHigh,HumidityAvg,HumidityLow,PressureMaxIn,PressureMinIn,WindSpeedMaxMPH,WindSpeedAvgMPH,GustSpeedMaxMPH,PrecipitationSumIn
2013-1-1,19,6,-7,15,0,-13,83,75,59,30.24,30.00,17,4,17,0.00
2013-1-2,21,15,12,17,11,8,89,86,82,30.03,29.92,12,5,12,0.00
2013-1-3,20,13,10,17,7,2,85,77,65,30.22,30.03,18,7,18,0.00
2013-1-4,32,22,14,17,14,9,85,70,54,30.09,29.97,18,6,18,0.03
2013-1-5,26,16,7,15,10,3,86,76,58,30.07,29.82,15,4,15,0.00
2013-1-6,24,15,10,12,8,3,86,74,55,30.18,29.97,15,6,15,0.00
2013-1-7,38,29,18,25,21,13,83,71,59,30.01,29.86,28,10,28,0.03
2013-1-8,34,27,15,28,22,12,89,81,72,29.94,29.74,20,6,20,0.01
2013-1-9,36,30,21,26,21,17,84,70,55,30.33,29.88,24,8,24,0.00
2013-1-10,39,32,21,32,25,16,95,74,49,30.29,29.72,16,7,16,0.24
2013-1-11,40,36,34,39,35,32,96,96,95,29.71,29.35,15,6,15,0.01
2013-1-12,38,15,4,38,8,-4,96,72,59,30.03,29.36,25,11,25,0.00
2013-1-13,10,4,1,2,-3,-6,76,72,62,30.20,30.00,15,5,15,0.00
2013-1-14,15,8,4,3,1,-2,80,72,56,30.37,30.21,15,4,15,0.00
2013-1-15,31,21,6,17,11,1,82,68,53,30.25,29.82,25,9,25,0.00
2013-1-16,37,26,13,31,18,0,90,72,42,30.18,29.63,25,10,25,0.01
2013-1-17,20,12,3,10,1,-6,75,61,45,30.36,30.18,15,4,15,0.00
2013-1-18,43,31,16,30,23,10,85,74,60,30.26,29.71,18,7,18,0.00
2013-1-19,40,24,2,30,16,-7,89,72,53,30.16,29.65,33,10,33,0.00
2013-1-20,9,3,-3,0,-8,-13,76,62,47,30.36,30.16,21,8,21,0.00
2013-1-21,-3,-7,-12,-12,-17,-22,69,60,51,30.30,30.22,18,8,18,0.00
2013-1-22,6,-3,-11,-4,-13,-19,69,62,52,30.36,30.20,12,4,12,0.00
2013-1-23,16,7,-5,7,-4,-19,81,61,44,30.55,30.10,25,9,29,0.00
2013-1-24,13,2,-6,3,-11,-20,63,53,43,30.62,30.14,24,7,24,0.00
2013-1-25,19,13,4,12,3,-4,79,65,50,30.26,29.91,27,10,27,0.00
2013-1-26,24,13,-1,11,2,-6,79,64,46,30.30,30.08,20,6,20,0.00
2013-1-27,32,29,23,30,23,11,95,77,57,30.08,29.76,18,5,18,0.02
2013-1-28,34,31,30,33,30,29,96,95,95,29.86,29.61,12,3,12,0.14
2013-1-29,35,32,28,32,28,21,96,88,75,29.69,29.48,22,7,22,0.08
2013-1-30,28,18,8,21,10,0,77,71,64,29.71,29.58,24,14,24,0.00
2013-1-31,8,1,-8,1,-8,-18,75,66,60,30.22,29.71,21,12,21,0.00
2013-2-1,6,-3,-13,2,-12,-20,81,66,47,30.27,30.00,14,4,14,0.00
2013-2-2,13,7,2,5,0,-6,82,73,56,30.14,29.92,12,3,12,0.00
2013-2-3,14,10,4,7,3,-3,83,74,58,30.05,29.92,15,5,15,0.00
2013-2-4,16,10,4,8,2,-2,84,69,51,30.02,29.74,15,4,15,0.00
2013-2-5,29,22,9,24,16,4,91,78,59,30.04,29.62,20,7,20,0.03
2013-2-6,25,15,2,19,10,-3,85,81,74,30.07,29.90,10,3,12,0.00
2013-2-7,26,25,19,22,20,16,91,83,74,30.21,29.93,21,7,21,0.00
2013-2-8,27,23,19,20,16,10,83,72,54,30.35,30.19,18,6,18,0.00
2013-2-9,31,28,25,27,24,20,89,84,80,30.19,29.90,26,15,26,0.01
2013-2-10,33,30,28,32,28,23,96,92,85,29.90,29.23,16,6,16,0.02
2013-2-11,31,24,17,30,19,11,96,81,69,30.00,29.28,25,11,25,0.00
2013-2-12,36,24,15,25,17,10,83,74,60,30.00,29.77,19,6,19,0.05
2013-2-13,40,29,18,31,23,15,93,79,59,29.77,29.52,14,4,14,0.19
2013-2-14,33,26,15,31,19,0,94,74,35,30.14,29.53,21,8,21,0.07
2013-2-15,18,10,4,4,0,-2,76,64,44,30.25,30.14,16,7,16,0.00
2013-2-16,18,8,0,5,1,-5,81,72,56,30.22,30.08,9,2,9,0.00
2013-2-17,31,20,5,22,13,-1,79,72,64,30.08,29.61,27,11,27,0.00
2013-2-18,33,23,6,30,17,1,87,76,69,29.75,29.49,22,10,22,0.00
2013-2-19,7,4,-2,1,-6,-11,80,63,53,30.31,29.75,29,12,29,0.00
2013-2-20,20,5,-7,4,-5,-13,73,62,48,30.41,30.31,10,3,10,0.00
2013-2-21,21,14,4,11,4,-3,75,65,56,30.40,30.04,13,5,13,0.00
2013-2-22,27,22,19,22,18,11,89,85,68,30.04,29.82,18,5,18,0.07
2013-2-23,28,20,13,21,16,9,88,83,74,29.93,29.82,12,4,12,0.02
2013-2-24,33,20,5,22,13,1,87,77,60,30.07,29.92,7,2,7,0.03
2013-2-25,38,28,18,25,22,15,92,78,58,30.08,30.00,10,2,10,0.00
2013-2-26,36,28,16,26,22,13,90,77,63,30.02,29.83,20,6,20,0.00
2013-2-27,38,31,28,24,23,21,80,72,57,29.99,29.83,25,11,25,0.00
2013-2-28,29,28,24,21,19,14,75,68,63,30.18,29.99,22,9,22,0.00
2013-3-1,30,24,17,16,14,10,74,64,52,30.32,30.18,18,6,18,0.00
2013-3-2,28,19,9,11,7,4,85,62,41,30.32,30.15,10,3,10,0.00
2013-3-3,33,24,12,13,9,5,73,55,38,30.15,29.95,16,4,16,0.00
2013-3-4,26,24,21,21,17,12,90,77,56,30.00,29.91,16,7,16,0.00
2013-3-5,28,25,21,23,21,17,91,87,80,30.26,29.94,15,6,15,0.04
2013-3-6,29,22,14,18,15,10,86,75,61,30.38,30.25,14,5,14,0.05
2013-3-7,31,19,6,18,12,2,86,73,58,30.35,30.25,15,4,15,0.05
2013-3-8,37,27,16,29,21,12,86,78,66,30.29,30.06,17,6,17,0.02
2013-3-9,36,35,33,35,33,27,96,92,75,30.06,29.67,21,8,21,0.57
2013-3-10,35,33,28,34,29,25,96,84,76,29.91,29.74,26,13,27,0.01
2013-3-11,29,27,22,26,21,15,91,78,66,29.82,29.71,20,9,20,0.01
2013-3-12,28,24,19,20,14,9,79,67,48,30.14,29.80,21,9,21,0.00
2013-3-13,32,22,12,17,12,8,83,66,40,30.35,30.15,13,5,13,0.00
2013-3-14,39,30,22,27,23,16,89,75,59,30.23,29.99,12,5,12,0.03
2013-3-15,33,31,26,30,27,23,92,87,82,29.99,29.78,12,4,12,0.09
2013-3-16,27,21,14,23,13,5,91,71,48,30.19,29.85,17,8,17,0.01
2013-3-17,28,18,8,19,6,-2,73,59,49,30.23,29.86,21,8,21,0.00
2013-3-18,29,21,11,28,16,4,95,80,71,29.86,29.58,29,15,29,0.00
2013-3-19,23,13,6,5,1,-4,73,59,40,30.15,29.77,23,13,23,0.00
2013-3-20,21,12,4,3,-2,-5,64,54,41,30.18,30.08,21,10,21,0.00
2013-3-21,29,16,4,10,4,-3,75,58,38,30.09,30.00,14,2,14,0.00
2013-3-22,36,23,9,15,9,3,78,58,35,30.07,30.01,12,3,12,0.00
2013-3-23,40,28,16,19,15,11,81,60,38,30.13,30.04,12,3,12,0.00
2013-3-24,32,29,26,22,20,17,78,69,58,30.08,29.94,20,7,20,0.00
2013-3-25,38,30,22,19,16,14,71,57,40,30.18,30.00,20,8,20,0.00
2013-3-26,41,31,24,21,19,18,76,64,41,30.27,30.19,12,4,12,0.00
2013-3-27,42,32,20,24,18,14,85,59,33,30.32,30.27,13,3,13,0.00
2013-3-28,43,32,19,27,21,15,85,65,39,30.33,30.26,15,3,15,0.00
2013-3-29,47,36,27,34,28,22,82,72,54,30.26,30.05,15,5,15,0.00
2013-3-30,55,43,34,41,36,31,91,78,56,30.05,29.83,16,7,16,0.13
2013-3-31,38,33,24,31,23,10,94,68,34,30.06,29.78,26,11,26,0.00
2013-4-1,34,25,17,15,12,9,73,57,38,30.23,30.05,18,9,18,0.00
2013-4-2,36,27,18,16,12,8,81,56,32,30.33,30.22,17,6,17,0.00
2013-4-3,45,34,20,30,20,11,78,59,42,30.38,30.05,25,10,25,0.00
2013-4-4,51,43,34,33,27,21,76,54,33,30.14,29.99,26,11,26,0.00
2013-4-5,44,34,27,32,24,15,93,69,35,30.21,29.88,18,7,18,0.05
2013-4-6,57,43,34,45,35,28,91,74,58,29.88,29.47,25,10,25,0.07
2013-4-7,49,45,40,38,37,33,91,74,60,29.86,29.73,13,6,13,0.23
2013-4-8,47,42,38,42,39,37,97,89,77,30.00,29.65,17,5,17,0.16
2013-4-9,41,38,31,37,32,25,93,81,59,30.12,29.93,25,12,25,0.40
2013-4-10,36,32,28,31,27,24,94,82,69,30.17,29.87,20,9,20,0.17
2013-4-11,36,32,30,32,29,22,94,88,57,29.88,29.64,22,6,22,0.37
2013-4-12,34,30,27,29,27,25,94,89,77,29.81,29.64,12,5,13,0.17
2013-4-13,37,32,28,27,25,22,92,76,58,29.93,29.81,16,4,16,0.11
2013-4-14,36,32,28,34,28,22,95,85,68,29.93,29.45,12,3,22,0.02
2013-4-15,40,35,31,34,27,23,93,73,61,29.95,29.52,26,13,26,0.02
2013-4-16,47,38,32,28,26,23,80,64,43,30.30,29.95,17,5,17,0.00
2013-4-17,39,36,32,34,30,26,94,79,67,30.30,29.88,17,6,17,0.39
2013-4-18,35,32,30,33,30,29,96,94,90,29.89,29.47,24,8,24,0.14
2013-4-19,33,30,28,29,26,20,96,86,62,29.86,29.45,27,8,27,0.10
2013-4-20,41,32,20,22,15,8,81,53,27,30.28,29.86,10,3,12,0.10
2013-4-21,50,40,32,46,36,18,95,84,52,30.29,30.01,30,11,30,0.28
2013-4-22,41,36,32,37,32,30,96,87,66,30.19,30.07,18,6,18,0.11
2013-4-23,41,33,28,32,26,18,96,78,43,30.13,30.03,18,4,18,0.23
2013-4-24,48,37,26,34,27,21,90,70,42,30.05,29.89,25,8,25,0.02
2013-4-25,52,41,32,31,28,22,88,64,31,30.20,29.97,17,7,17,0.00
2013-4-26,73,57,43,44,38,30,76,50,27,30.12,29.97,24,9,24,0.00
2013-4-27,75,60,42,48,40,32,75,51,26,30.12,29.90,20,6,20,0.00
2013-4-28,79,63,51,55,47,41,80,58,28,29.90,29.64,26,13,26,0.09
2013-4-29,74,62,50,57,48,36,90,63,38,29.80,29.55,16,6,16,0.07
2013-4-30,72,64,58,58,45,25,85,54,22,29.93,29.42,25,8,25,0.00
2013-5-1,58,40,33,41,34,31,94,83,44,30.45,29.95,20,7,20,0.55
2013-5-2,45,38,32,32,28,24,95,70,45,30.51,30.39,22,9,22,0.14
2013-5-3,38,34,31,32,28,24,95,80,58,30.39,30.15,23,10,23,0.07
2013-5-4,49,40,32,41,36,30,94,86,72,30.15,30.09,15,5,16,0.06
2013-5-5,66,50,38,47,40,35,89,71,46,30.15,30.06,12,4,12,0.00
2013-5-6,79,62,44,48,45,41,92,60,29,30.10,30.00,9,2,9,0.00
2013-5-7,80,67,51,52,46,38,85,52,22,30.06,29.95,3,0,10,0.00
2013-5-8,79,65,53,57,50,42,90,62,28,30.00,29.92,20,1,20,0.21
2013-5-9,58,53,44,56,48,27,92,83,52,30.08,29.94,21,1,21,0.13
2013-5-10,70,52,38,39,27,20,69,41,16,30.09,29.89,6,0,4,0.00
2013-5-11,56,47,41,43,25,14,66,44,25,30.16,29.86,24,4,24,0.00
2013-5-12,58,46,32,24,20,13,67,39,18,30.21,30.07,20,6,20,0.00
2013-5-13,67,54,54,46,16,14,46,22,21,30.08,29.62,16,3,17,0.00
2013-5-14,100,76,54,52,44,27,71,36,13,29.68,29.44,33,9,33,0.00
2013-5-15,78,67,55,50,45,41,67,47,27,29.91,29.66,23,7,23,0.00
2013-5-16,85,72,60,49,42,32,57,36,20,29.91,29.83,16,5,16,0.00
2013-5-17,67,57,54,55,50,33,95,81,28,29.99,29.88,15,6,15,0.26
2013-5-18,81,65,54,65,58,53,97,82,53,30.01,29.78,24,6,24,1.02
2013-5-19,81,68,62,66,62,60,96,83,55,29.80,29.55,35,7,35,1.31
2013-5-20,73,65,58,62,58,55,95,79,56,29.60,29.49,28,10,28,0.39
2013-5-21,67,59,52,59,54,50,97,86,59,29.69,29.51,20,5,20,0.01
2013-5-22,53,49,46,50,47,43,96,93,69,29.96,29.67,16,7,16,0.16
2013-5-23,66,53,44,43,34,28,82,51,26,30.33,29.97,17,6,17,0.00
2013-5-24,69,54,36,51,39,28,88,58,31,30.38,30.18,2,0,0,0.16
2013-5-25,60,55,51,50,47,41,90,74,58,30.26,30.22,9,0,9,0.02
2013-5-26,58,54,50,48,43,37,75,67,52,30.22,30.05,14,5,14,0.00
2013-5-27,61,56,53,55,51,47,94,85,69,30.10,29.83,12,2,12,0.17
2013-5-28,55,54,52,53,52,51,96,96,94,29.86,29.71,7,0,7,0.11
2013-5-29,54,54,54,53,53,53,96,96,96,29.72,29.72,0,0,0,0.00
2013-5-30,54,54,54,53,53,53,96,96,96,29.72,29.72,0,0,0,0.00
2013-5-31,79,68,61,61,56,47,90,68,34,29.56,29.49,21,8,35,0.06
2013-6-1,75,60,51,61,52,42,93,75,51,29.92,29.55,20,6,20,0.30
2013-6-2,68,56,48,43,40,37,75,56,33,30.07,29.93,17,6,17,0.00
2013-6-3,75,60,44,47,42,35,88,55,30,30.06,29.93,12,2,12,0.00
2013-6-4,64,59,54,53,50,45,90,72,57,30.08,29.99,23,6,23,0.03
2013-6-5,65,56,54,58,54,49,96,91,76,30.06,29.93,12,2,12,0.23
2013-6-6,56,53,50,52,51,49,97,91,82,30.02,29.94,12,4,12,0.00
2013-6-7,69,59,52,52,51,49,94,76,52,30.05,29.92,7,1,7,0.00
2013-6-8,73,63,53,56,52,50,91,70,48,29.92,29.88,16,3,16,0.00
2013-6-9,72,60,56,62,57,54,96,89,69,29.90,29.76,12,2,12,0.67
2013-6-10,80,66,58,63,60,56,97,82,50,29.86,29.80,12,1,12,0.00
2013-6-11,80,68,54,69,62,53,97,83,60,29.89,29.80,13,1,13,0.02
2013-6-12,72,67,62,66,62,52,97,86,58,29.90,29.77,14,4,14,0.84
2013-6-13,80,69,57,56,52,48,83,57,40,30.10,29.90,15,4,15,0.00
2013-6-14,81,69,54,60,56,50,89,65,48,30.09,29.87,21,7,21,0.03
2013-6-15,78,69,62,68,63,59,95,83,57,29.93,29.83,21,4,21,1.08
2013-6-16,89,72,60,61,54,43,95,58,22,29.93,29.85,33,4,33,0.02
2013-6-17,84,73,60,58,54,49,81,55,32,30.00,29.86,14,4,14,0.00
2013-6-18,84,68,57,60,55,50,77,63,39,30.08,30.00,10,2,10,0.00
2013-6-19,89,72,57,62,56,50,90,60,31,30.07,29.94,16,4,16,0.00
2013-6-20,90,80,70,65,61,58,72,54,34,30.01,29.88,23,10,23,0.00
2013-6-21,86,73,63,69,64,60,94,76,53,30.04,29.76,31,5,31,0.88
2013-6-22,88,73,64,71,66,60,96,80,53,30.01,29.83,14,2,14,0.55
2013-6-23,86,75,68,68,66,63,93,75,51,29.89,29.71,28,9,28,0.24
2013-6-24,83,72,62,70,65,61,96,81,60,29.91,29.80,20,4,20,0.01
2013-6-25,90,76,64,73,67,61,93,75,53,29.84,29.72,18,3,18,0.00
2013-6-26,90,79,70,74,69,63,96,75,48,29.82,29.66,15,4,15,0.00
2013-6-27,87,78,69,66,59,48,81,55,27,29.83,29.78,23,5,23,0.00
2013-6-28,78,70,64,64,59,56,91,69,53,29.81,29.75,33,8,33,0.28
2013-6-29,76,68,60,62,57,48,95,71,38,29.97,29.74,17,7,17,0.23
2013-6-30,82,68,55,55,50,41,84,56,28,30.11,29.97,13,3,13,0.00
2013-7-1,89,74,58,59,54,48,90,55,29,30.19,30.11,12,1,12,0.00
2013-7-2,84,71,57,56,52,47,82,54,32,30.16,30.05,13,2,13,0.00
2013-7-3,90,72,55,60,53,45,92,57,23,30.08,29.95,10,1,10,0.00
2013-7-4,89,76,62,62,56,50,79,53,27,29.98,29.87,20,7,20,0.00
2013-7-5,88,78,69,64,60,56,73,54,38,29.91,29.82,25,11,25,0.03
2013-7-6,91,81,72,65,62,59,67,54,38,29.89,29.81,21,10,21,0.00
2013-7-7,94,83,75,71,66,63,77,59,41,29.88,29.81,15,5,15,0.00
2013-7-8,92,78,68,69,67,64,93,71,44,29.99,29.87,9,2,9,0.00
2013-7-9,86,77,69,71,68,62,95,75,57,29.96,29.76,28,5,28,0.50
2013-7-10,81,72,62,64,55,49,78,59,37,30.05,29.91,17,6,17,0.00
2013-7-11,86,73,58,62,56,48,95,60,28,30.11,29.98,17,4,17,0.00
2013-7-12,88,77,66,62,59,56,76,54,38,30.02,29.91,28,12,28,0.00
2013-7-13,77,72,63,68,62,56,96,73,53,30.07,29.93,30,10,30,2.73
2013-7-14,87,74,68,68,64,60,86,72,46,30.19,30.07,15,4,15,0.00
2013-7-15,90,78,65,70,66,63,92,68,44,30.24,30.17,13,3,13,0.00
2013-7-16,93,83,72,72,70,66,91,67,44,30.22,30.18,18,5,18,0.00
2013-7-17,95,84,74,72,69,65,83,62,41,30.26,30.12,15,4,15,0.00
2013-7-18,93,85,77,71,70,67,77,61,44,30.12,29.78,25,10,25,0.00
2013-7-19,84,79,71,70,64,56,80,61,41,29.89,29.73,27,7,27,0.02
2013-7-20,85,72,64,66,61,56,85,67,47,29.95,29.87,12,1,12,0.00
2013-7-21,86,71,58,68,61,50,94,71,53,29.95,29.81,14,2,14,0.27
2013-7-22,88,74,65,71,64,55,92,71,45,29.83,29.67,17,7,17,0.00
2013-7-23,77,68,59,55,53,49,85,61,41,30.02,29.83,16,4,16,0.00
2013-7-24,80,66,55,60,55,51,88,69,42,30.08,29.97,14,3,14,0.01
2013-7-25,84,73,62,68,62,57,86,69,46,29.99,29.90,14,4,14,0.02
2013-7-26,69,64,56,63,55,46,95,75,54,30.07,29.90,22,8,22,0.17
2013-7-27,62,56,52,50,47,43,83,71,54,30.07,29.92,24,6,24,0.02
2013-7-28,74,60,51,53,49,44,86,67,47,30.06,29.94,14,4,14,0.00
2013-7-29,79,65,50,57,53,48,96,69,40,30.13,30.06,16,3,16,0.00
2013-7-30,72,67,63,64,60,56,91,79,70,30.10,30.05,9,2,9,0.00
2013-7-31,81,69,61,67,60,51,97,77,46,30.08,29.99,15,2,15,0.03
2013-8-1,84,70,55,62,54,50,86,61,35,30.04,29.86,10,2,10,0.00
2013-8-2,76,68,58,60,54,47,85,63,36,30.03,29.85,11,2,11,0.00
2013-8-3,78,65,53,56,52,46,92,66,34,30.16,30.03,12,2,12,0.00
2013-8-7,76,68,58,58,52,47,90,59,36,30.04,29.90,8,2,18,0.00
2013-8-8,77,64,53,60,55,51,95,75,49,30.07,29.99,10,2,10,0.00
2013-8-9,75,66,58,60,54,49,95,69,39,30.12,30.00,16,3,16,0.01
2013-8-10,79,68,58,57,53,48,86,63,36,30.19,30.09,16,2,16,0.00
2013-8-11,84,70,63,65,61,56,90,75,50,30.10,29.99,12,1,12,0.00
2013-8-12,78,70,62,64,57,50,94,66,40,30.06,29.99,15,4,15,0.00
2013-8-13,78,64,53,55,49,42,93,64,31,30.19,30.06,13,2,13,0.00
2013-8-14,78,67,51,55,51,48,93,61,36,30.20,30.10,12,2,12,0.00
2013-8-15,82,67,53,60,53,48,87,62,36,30.14,30.08,12,2,12,0.00
2013-8-16,81,70,58,59,55,49,89,62,36,30.20,30.13,16,2,16,0.00
2013-8-17,65,65,65,56,56,56,73,73,73,30.17,30.17,0,0,0,0.00
2013-8-18,65,65,65,56,56,56,73,73,73,30.17,30.17,0,0,0,0.00
2013-8-19,87,74,64,67,62,56,83,68,50,30.17,29.91,20,6,20,0.00
2013-8-20,89,78,69,73,68,62,82,71,55,29.93,29.86,20,8,20,0.00
2013-8-21,87,77,70,75,71,67,94,82,63,29.99,29.85,17,3,17,0.10
2013-8-22,88,75,64,72,56,49,95,56,29,30.12,29.98,14,2,14,0.00
2013-8-23,87,72,56,67,60,52,87,68,46,30.15,30.04,16,4,16,0.00
2013-8-24,88,77,68,72,67,63,85,72,56,30.09,29.95,29,12,29,0.00
2013-8-25,93,84,77,74,71,67,76,65,51,30.01,29.93,16,8,31,0.00
2013-8-26,94,85,78,75,73,71,80,67,50,29.98,29.85,26,7,26,0.00
2013-8-27,97,85,76,77,72,70,83,68,47,29.91,29.80,14,4,14,0.00
2013-8-28,94,80,70,74,71,68,96,76,48,30.01,29.91,10,1,10,0.00
2013-8-29,93,82,74,74,70,64,92,71,39,30.00,29.86,17,6,17,0.00
2013-8-30,84,77,70,71,66,62,87,71,53,29.92,29.81,17,5,17,0.00
2013-8-31,90,74,62,69,64,60,94,75,47,29.89,29.71,14,3,14,0.07
2013-9-1,72,69,62,67,59,52,86,73,60,29.97,29.73,16,6,16,0.00
2013-9-2,68,58,52,53,51,49,91,76,57,30.09,29.96,14,3,14,0.00
2013-9-3,78,62,46,59,53,44,96,74,45,30.10,30.00,16,2,16,0.01
2013-9-4,89,71,56,68,61,54,95,72,44,30.15,30.00,9,1,9,0.00
2013-9-5,87,72,59,67,60,53,86,68,48,30.22,30.11,7,1,7,0.00
2013-9-6,90,77,67,67,64,59,93,69,38,30.11,29.88,24,7,24,0.02
2013-9-7,92,80,70,71,66,62,88,65,38,30.00,29.86,15,4,15,0.00
2013-9-8,81,71,65,65,62,58,84,73,58,30.04,29.89,12,3,12,0.00
2013-9-9,93,78,69,73,68,64,95,73,45,29.89,29.63,20,7,20,0.07
2013-9-10,82,74,67,70,64,62,91,72,54,29.98,29.75,13,3,13,0.00
2013-9-11,84,72,62,62,57,48,92,62,31,30.05,29.98,17,3,17,0.00
2013-9-12,72,64,55,53,48,43,83,58,36,30.22,30.05,23,6,23,0.00
2013-9-13,73,57,43,48,44,41,95,65,34,30.28,30.09,12,2,12,0.00
2013-9-14,73,59,46,55,47,41,95,68,36,30.09,29.88,21,6,21,0.51
2013-9-15,65,58,49,57,53,44,96,83,68,30.30,29.87,17,5,17,0.35
2013-9-16,58,46,40,47,42,38,95,86,64,30.40,30.30,12,1,12,0.01
2013-9-17,58,53,52,47,47,46,84,81,64,30.40,30.18,9,8,9,0.01
2013-9-18,52,52,52,47,47,47,84,84,84,30.18,30.18,9,9,9,0.00
2013-9-19,78,69,52,69,64,47,95,84,69,30.18,29.61,16,4,16,0.16
2013-9-20,64,58,51,57,51,46,90,78,57,29.92,29.78,15,6,15,0.02
2013-9-21,65,53,46,48,46,44,93,78,51,29.98,29.90,10,2,10,0.00
2013-9-22,75,58,42,55,49,40,96,76,47,29.97,29.85,17,5,17,0.01
2013-9-23,75,61,51,53,50,47,87,69,43,29.96,29.87,27,8,27,0.00
2013-9-24,79,61,46,56,50,45,96,73,38,29.97,29.90,12,1,12,0.00
2013-9-25,77,60,47,55,50,46,96,74,42,29.98,29.87,15,2,15,0.00
2013-9-26,82,66,51,60,55,49,94,70,44,29.93,29.84,28,8,28,0.00
2013-9-27,84,72,64,63,60,58,80,65,43,29.93,29.80,26,12,26,0.00
2013-9-28,70,60,49,63,54,44,93,79,68,29.94,29.65,24,8,24,0.17
2013-9-29,76,61,49,47,43,39,81,56,27,29.96,29.80,21,8,21,0.00
2013-9-30,79,66,57,52,49,46,69,54,35,29.80,29.60,25,14,25,0.00
2013-10-1,76,66,53,52,44,31,70,47,21,29.98,29.60,23,7,23,0.00
2013-10-2,78,61,42,54,41,34,92,54,22,30.04,29.81,21,4,21,0.17
2013-10-3,58,57,56,56,56,54,96,96,92,29.89,29.80,9,2,9,0.16
2013-10-4,58,58,58,56,56,56,96,96,96,29.85,29.85,1,1,1,0.16
2013-10-5,62,54,40,59,50,38,99,86,60,29.89,29.72,7,1,19,0.09
2013-10-6,55,47,40,49,44,38,96,91,72,29.83,29.67,14,3,14,0.04
2013-10-7,67,52,42,46,42,38,95,73,35,29.98,29.82,12,2,12,0.01
2013-10-8,76,61,45,47,43,40,87,56,29,29.97,29.83,29,12,29,0.00
2013-10-9,75,63,53,52,48,46,78,60,38,30.05,29.93,18,9,18,0.00
2013-10-10,78,60,45,52,47,43,92,66,34,30.03,29.89,20,6,20,0.00
2013-10-11,74,64,53,60,53,49,89,69,47,29.89,29.64,35,11,35,0.19
2013-10-12,59,51,45,55,42,36,88,70,50,30.17,29.70,23,7,23,0.08
2013-10-13,62,47,38,40,35,30,86,67,32,30.42,30.17,8,1,8,0.00
2013-10-14,55,46,36,47,39,34,92,76,52,30.40,29.94,12,2,12,0.35
2013-10-15,53,49,46,52,47,44,97,93,87,29.95,29.66,16,6,17,0.66
2013-10-16,54,45,37,44,39,32,94,81,54,29.94,29.79,17,4,17,0.02
2013-10-17,61,47,37,44,38,32,93,72,41,29.87,29.74,16,4,16,0.08
2013-10-18,54,44,38,40,34,26,96,71,37,29.96,29.82,16,5,16,0.07
2013-10-19,47,39,32,40,34,28,89,81,64,29.83,29.66,21,4,21,0.03
2013-10-20,49,37,29,41,33,26,91,84,60,29.85,29.59,18,5,18,0.05
2013-10-21,38,34,28,32,22,19,80,63,48,29.94,29.85,17,6,17,0.00
2013-10-22,39,33,25,31,27,22,90,78,62,30.01,29.93,10,2,10,0.00
2013-10-23,38,34,31,31,24,18,87,69,50,30.08,29.98,15,4,15,0.01
2013-10-24,42,36,32,29,25,19,82,64,51,30.29,30.08,16,4,16,0.00
2013-10-25,57,43,27,40,32,23,88,67,46,30.30,29.77,26,9,26,0.00
2013-10-26,51,42,35,40,30,27,73,61,47,30.08,29.77,21,7,21,0.00
2013-10-27,58,43,29,34,29,24,84,60,36,30.10,29.79,20,6,20,0.00
2013-10-28,44,37,30,30,24,20,77,60,41,30.41,30.10,18,6,18,0.00
2013-10-29,42,37,29,36,28,20,89,70,60,30.38,30.07,12,3,12,0.04
2013-10-30,50,44,39,48,43,36,97,95,89,30.06,29.64,10,2,10,0.13
2013-10-31,50,42,39,49,40,36,97,93,83,29.64,29.38,16,4,16,0.01
2013-11-1,50,43,35,38,35,30,91,76,54,29.83,29.39,17,5,17,0.00
2013-11-2,49,40,32,35,30,27,85,70,43,30.08,29.83,15,3,15,0.00
2013-11-3,54,43,33,35,31,27,85,64,42,30.10,29.88,35,14,35,0.00
2013-11-4,47,46,44,39,36,32,75,68,58,29.88,29.83,29,16,29,0.00
2013-11-5,47,36,27,39,30,25,95,82,55,30.22,29.83,17,4,17,0.04
2013-11-6,39,33,29,31,27,23,95,79,57,30.15,29.98,13,6,13,0.10
2013-11-7,36,30,26,28,26,23,92,85,72,30.21,30.14,13,4,13,0.00
2013-11-8,46,35,22,40,27,19,92,75,50,30.18,29.59,24,9,24,0.01
2013-11-9,45,41,34,40,31,24,81,70,55,30.18,29.60,28,12,28,0.00
2013-11-10,43,38,31,30,28,25,78,67,55,30.31,30.07,20,5,20,0.00
2013-11-11,38,24,15,30,13,6,87,61,45,30.69,30.08,22,11,22,0.01
2013-11-12,29,19,10,12,8,5,82,64,39,30.75,30.43,13,4,13,0.00
2013-11-13,50,37,23,34,23,10,68,58,46,30.43,29.86,28,12,28,0.00
2013-11-14,52,40,35,37,32,27,83,72,55,29.85,29.74,14,5,14,0.00
2013-11-15,56,43,30,40,35,27,91,73,49,29.82,29.63,20,6,20,0.00
2013-11-16,51,44,39,50,41,33,97,90,72,29.63,29.21,19,7,19,0.14
2013-11-17,44,39,31,39,33,23,93,80,71,29.78,29.29,27,10,27,0.00
2013-11-18,35,29,22,23,20,17,81,67,53,30.23,29.80,25,9,25,0.00
2013-11-19,46,34,19,30,24,16,87,69,51,30.23,29.91,32,13,32,0.00
2013-11-20,43,40,36,34,30,24,92,68,52,30.01,29.87,29,14,29,0.00
2013-11-21,37,30,24,36,27,14,94,88,67,30.47,30.01,18,8,18,0.00
2013-11-22,32,23,12,14,10,2,82,61,32,30.57,30.42,28,8,28,0.00
2013-11-23,17,10,6,2,0,-4,75,63,40,30.80,30.57,20,6,20,0.00
2013-11-24,29,18,5,15,7,-2,77,61,47,30.67,29.98,33,14,33,0.00
2013-11-25,34,30,27,26,20,14,76,68,60,29.98,29.88,33,13,33,0.00
2013-11-26,34,34,34,26,26,26,72,72,72,29.93,29.93,5,5,5,0.00
2013-11-27,34,34,34,26,26,26,72,72,72,29.93,29.93,5,5,5,0.00
2013-11-28,34,22,12,26,11,6,80,64,53,30.48,29.93,15,4,15,0.00
2013-11-29,32,22,9,20,14,5,84,70,51,30.48,30.12,24,8,24,0.00
2013-11-30,38,31,23,26,23,19,85,72,60,30.12,30.00,16,3,16,0.00
2013-12-1,34,28,19,25,22,16,90,79,67,30.15,29.89,7,1,7,0.00
2013-12-2,37,32,25,33,28,21,94,87,75,29.89,29.55,20,5,20,0.11
2013-12-3,35,33,31,34,32,30,99,95,92,29.74,29.55,10,4,10,0.09
2013-12-4,32,28,12,30,26,7,96,93,79,29.73,29.42,20,5,20,0.00
2013-12-5,12,5,-1,7,-2,-8,80,73,66,30.29,29.67,22,7,22,0.00
2013-12-6,4,-2,-8,-5,-10,-15,76,70,63,30.59,30.29,13,4,13,0.00
2013-12-7,2,-5,-12,-10,-13,-18,74,68,56,30.68,30.53,10,2,10,0.00
2013-12-8,12,6,-2,6,1,-10,83,79,70,30.52,29.99,9,3,9,0.00
2013-12-9,10,0,-5,6,-7,-12,83,72,61,30.07,29.83,18,6,18,0.00
2013-12-10,14,8,2,10,0,-6,85,72,61,30.20,29.71,24,8,24,0.00
2013-12-11,7,-3,-8,-2,-12,-16,69,63,53,30.51,30.20,21,6,21,0.00
2013-12-12,20,13,0,10,5,-8,78,70,59,30.27,30.08,12,3,12,0.00
2013-12-13,15,13,10,10,6,4,83,74,67,30.23,30.07,20,6,20,0.00
2013-12-14,15,9,0,8,3,-8,82,77,70,30.23,30.03,17,4,17,0.00
2013-12-15,5,1,-1,-7,-9,-11,71,62,48,30.10,30.04,13,4,13,0.00
2013-12-16,25,10,-1,20,4,-11,86,75,59,30.08,29.87,20,6,20,0.00
2013-12-17,30,23,8,25,15,4,83,71,57,30.07,29.84,24,9,24,0.00
2013-12-18,38,24,6,26,17,2,85,75,60,30.03,29.61,16,5,16,0.10
2013-12-19,29,19,16,23,12,8,79,74,66,30.02,29.75,20,8,20,0.00
2013-12-20,18,17,16,13,11,10,83,78,74,29.97,29.80,12,4,12,0.00
2013-12-21,22,19,16,15,13,11,83,77,70,29.94,29.81,13,4,13,0.00
2013-12-22,19,14,2,14,8,-4,83,79,73,30.18,29.89,14,6,14,0.00
2013-12-23,2,-2,-8,-4,-10,-15,76,69,61,30.45,30.18,16,6,16,0.00
2013-12-24,9,-1,-14,4,-9,-21,82,69,45,30.44,30.08,22,8,22,0.00
2013-12-25,28,16,8,24,11,4,89,80,64,30.10,29.99,20,5,20,0.00
2013-12-26,24,18,9,20,14,5,89,83,77,30.13,30.03,6,1,6,0.00
2013-12-27,40,29,14,30,24,11,92,82,65,30.12,29.86,24,6,24,0.20
2013-12-28,45,31,21,32,26,18,92,83,58,29.94,29.60,27,6,27,0.13
2013-12-29,21,0,-12,18,-10,-22,88,62,44,30.25,29.92,28,10,28,0.00
2013-12-30,0,-6,-14,-5,-13,-22,78,72,64,30.25,30.11,10,2,10,0.00
2013-12-31,0,-5,-10,-8,-13,-17,78,70,63,30.35,30.14,7,2,7,0.00
2014-1-1,2,-3,-9,-8,-13,-18,67,62,58,30.42,30.33,9,4,9,0.00
2014-1-2,4,-3,-11,-10,-14,-20,69,59,42,30.44,30.33,9,3,9,0.00